RH
84 102 104 100 103 107 98 82 69 57 55 61 61 61 67 71 71 73 76 78 78 77 78 84 89 91 90 87 85 87 90 96 100 103 104 103 100 98 97 96 95 91 90 91 88 86 84 81 79 76 74 73 71 68 65 61 59 60 59 57 53 45 37 29 23 20 18 17 16 16 16 16 16 16 15 15 15 14 14 14 14 14 14 14 14 14 14 15
71 97 108 108 106 103 90 73 61 51 60 79 78 77 82 83 83 81 79 80 80 82 88 93 95 93 91 90 92 96 100 102 103 103 101 99 98 97 95 92 89 86 85 87 86 85 83 80 77 75 73 70 66 63 63 62 61 59 52 42 33 25 20 18 17 16 16 16 15 15 14 14 13 14 13 13 13 13 13 13 13 13 13 13 12 12 13 12
54 83 101 99 94 94 88 72 60 55 73 90 82 81 84 83 80 76 77 83 87 91 95 96 95 96 97 98 101 102 103 102 101 100 99 98 96 94 94 92 89 88 88 89 89 88 85 81 77 73 69 67 65 65 63 56 47 38 28 22 18 17 16 16 15 14 14 13 13 13 13 13 13 13 14 14 14 14 14 15 15 15 15 15 14 14 14 14
39 67 85 85 82 85 83 68 59 59 73 85 84 88 92 90 85 78 80 84 89 95 95 92 91 98 102 102 102 102 101 101 100 102 102 99 97 97 95 93 93 95 95 94 92 89 84 77 72 70 69 68 62 53 42 32 24 19 17 16 16 15 14 13 13 13 13 13 13 13 13 13 14 14 14 14 14 14 14 15 15 15 15 15 15 15 14 15
32 53 68 76 78 78 80 69 62 66 77 92 98 102 106 108 102 91 86 84 84 90 92 89 90 99 103 101 101 102 102 101 99 100 103 101 99 99 100 100 98 97 94 92 90 84 77 73 72 69 62 51 38 28 21 18 17 16 15 14 14 13 14 13 13 13 13 13 13 13 13 13 13 13 13 13 13 13 14 14 15 15 15 15 15 15 15 15
30 45 56 65 73 78 83 81 82 88 95 103 105 107 109 109 108 104 100 95 87 87 93 95 98 102 102 100 100 102 102 100 98 99 101 101 99 101 106 103 95 92 90 86 80 75 74 71 63 50 36 26 21 18 17 16 15 14 14 14 14 13 13 13 13 13 13 14 14 14 15 15 16 16 15 15 15 16 16 17 16 16 17 17 17 17 17 16
31 40 49 54 63 71 80 89 100 104 103 104 102 104 106 104 104 106 108 108 102 96 100 103 103 101 101 100 99 99 100 100 100 100 100 101 100 101 103 98 92 88 83 77 75 73 67 53 38 26 21 19 18 17 16 15 14 14 14 13 14 14 14 15 15 16 17 18 19 20 20 20 21 21 21 21 21 22 22 22 22 22 22 22 22 21 20 20
33 37 46 50 58 67 77 91 105 106 101 101 101 101 104 102 101 102 103 107 109 105 103 103 102 101 102 100 98 99 100 100 100 100 101 101 98 98 98 93 86 81 77 76 71 58 42 28 21 20 19 17 16 15 15 15 14 14 15 16 17 18 19 19 20 21 23 24 25 26 27 27 28 28 28 28 28 27 27 28 27 28 28 27 27 26 25 25
34 37 45 52 62 74 84 95 106 107 102 101 103 102 102 101 101 101 100 101 104 104 102 101 101 101 101 99 99 100 100 100 100 100 101 99 98 97 91 84 80 79 75 64 46 31 23 20 19 18 16 16 15 15 15 16 17 18 19 20 21 22 24 24 25 25 26 28 29 30 30 31 31 30 31 31 31 30 30 30 30 31 31 30 30 29 29 29
31 39 48 60 72 83 92 102 108 107 104 104 104 105 104 102 102 102 101 100 100 102 101 101 101 100 100 100 100 100 99 100 100 100 100 98 94 88 83 82 80 70 53 35 24 21 20 18 17 16 16 16 17 18 19 21 22 23 24 25 26 27 27 27 28 28 28 29 29 29 29 29 29 28 29 29 29 29 29 29 29 30 30 30 30 30 30 31
29 39 53 72 83 91 98 105 109 105 104 106 104 105 106 102 103 102 101 100 100 100 100 100 100 100 100 100 100 100 100 99 100 100 97 92 87 85 84 78 60 41 27 21 20 19 17 17 17 18 19 20 21 23 24 26 27 28 28 29 29 29 29 29 29 29 29 28 28 28 28 28 28 28 28 28 29 30 30 31 30 31 30 30 31 32 32 32
28 38 54 79 92 98 102 104 106 105 106 106 101 103 104 101 101 101 100 100 100 100 100 100 100 100 100 100 100 100 99 100 100 97 92 90 89 84 70 48 31 23 21 20 18 17 18 19 20 22 23 25 26 26 27 28 29 29 29 29 28 28 28 27 27 28 28 29 29 29 30 31 30 30 31 31 32 33 34 34 34 34 35 35 36 37 37 37
28 38 48 71 93 101 101 102 105 105 105 104 102 102 102 100 100 100 100 100 100 100 100 100 100 100 100 100 100 99 99 98 95 92 91 88 77 57 36 25 21 21 19 18 18 20 21 23 25 26 26 27 27 28 28 28 28 27 27 28 28 29 29 29 29 29 30 29 29 28 29 31 30 28 29 30 30 31 32 32 32 33 34 36 38 39 39 39
29 39 42 58 84 96 96 99 105 105 103 102 102 101 100 100 100 100 100 99 100 100 100 100 100 100 100 99 100 100 98 94 92 90 82 64 43 28 23 21 20 19 19 21 22 24 26 27 27 28 28 29 29 28 28 28 28 28 29 31 31 33 33 32 30 29 29 28 27 25 25 26 25 24 24 24 25 25 25 25 26 27 28 30 31 32 33 34
30 42 44 47 66 90 101 103 104 102 101 101 100 100 100 100 100 100 100 101 101 101 102 101 100 100 100 100 99 96 94 92 86 72 51 34 24 22 21 20 20 21 23 24 26 27 28 28 28 29 29 29 28 28 29 30 30 30 31 32 31 31 32 32 30 28 27 27 26 24 24 23 22 22 22 21 21 21 21 21 21 22 22 23 23 24 24 25
32 46 52 47 51 72 95 106 108 105 103 103 103 103 103 101 102 103 103 102 102 102 103 101 99 100 100 99 97 95 92 80 60 40 27 23 21 20 20 21 24 25 25 27 28 29 29 29 29 29 28 28 29 29 30 30 30 29 29 29 30 30 30 32 31 28 26 26 26 25 23 23 23 23 23 21 21 20 20 20 19 19 19 19 19 19 19 18
35 55 64 57 52 57 71 87 96 100 101 100 99 100 102 102 102 102 102 102 102 101 100 100 100 100 98 98 97 89 72 50 32 23 22 20 20 21 24 26 26 27 28 29 29 29 29 28 27 27 27 29 30 30 29 29 29 30 31 31 32 33 32 31 31 28 26 25 24 24 23 22 22 23 22 21 20 19 18 17 17 17 16 16 16 15 15 15
44 67 75 69 68 66 65 68 74 83 88 89 92 94 96 96 98 100 102 101 100 100 100 100 99 99 100 96 83 61 38 26 21 20 20 20 23 25 26 27 28 29 29 29 29 29 27 26 27 28 29 30 31 31 31 31 31 31 32 33 32 33 33 30 28 26 24 23 22 20 19 18 18 19 18 18 17 16 15 14 13 12 12 11 11 11 11 11
49 68 78 78 78 73 67 65 67 74 80 84 88 89 91 96 99 101 101 100 100 100 99 99 100 101 92 71 47 30 23 21 21 20 22 24 26 27 28 28 28 28 28 29 29 27 28 29 30 30 31 32 33 34 34 33 32 32 32 32 31 31 32 29 26 24 22 21 19 17 15 14 14 14 14 14 14 14 12 11 10 10 9 8 8 8 8 8
48 60 71 76 78 75 71 66 64 71 80 87 91 93 99 102 101 100 100 101 100 99 100 101 95 79 56 35 24 22 21 21 22 24 26 27 28 28 28 28 27 27 28 29 29 30 31 30 31 32 32 34 34 35 35 34 33 33 33 33 31 30 31 30 26 23 21 18 17 15 13 12 12 12 12 12 11 11 10 9 9 8 8 7 7 7 6 6
49 56 64 73 81 82 76 72 75 83 89 93 97 102 104 102 101 101 100 99 99 101 99 86 63 41 27 23 23 22 22 24 25 27 27 28 28 28 27 26 26 27 29 29 30 31 31 31 33 34 34 35 35 35 36 36 35 34 34 33 32 30 29 30 27 23 20 18 15 13 11 11 11 11 11 10 9 8 8 7 7 7 7 7 6 7 6 6
51 54 61 69 79 83 81 80 81 79 80 86 95 101 103 101 101 99 99 101 101 91 71 48 31 23 23 23 23 23 25 26 26 26 27 27 27 26 26 26 25 27 29 29 30 32 33 34 35 36 37 36 36 36 37 38 37 35 35 33 33 31 29 28 27 24 20 17 14 11 10 10 10 10 9 8 7 6 6 6 6 6 6 7 6 6 6 6
50 51 55 65 77 81 75 67 63 67 78 91 100 103 102 100 99 100 102 96 79 55 35 25 23 23 23 23 23 24 25 25 26 27 28 27 26 26 25 25 25 27 31 32 34 36 37 37 38 37 37 37 37 37 37 39 40 39 37 35 36 35 31 27 25 23 19 15 12 9 9 8 8 8 7 6 6 5 6 6 6 6 6 6 6 6 6 6
43 45 55 70 78 71 58 58 69 85 99 105 104 101 99 100 101 98 84 62 40 27 23 23 23 23 23 23 24 25 26 27 28 28 28 28 27 26 25 24 25 29 35 37 37 40 40 39 39 38 37 37 37 37 37 40 42 42 41 39 38 36 33 29 25 21 18 14 11 8 8 8 7 7 6 5 5 5 6 6 6 6 6 6 6 6 6 6
42 53 67 74 68 60 64 79 94 102 104 102 99 100 101 99 88 68 46 30 24 22 23 22 23 24 24 24 25 27 28 28 28 29 28 28 27 25 25 24 26 31 37 41 40 40 41 40 40 39 38 38 38 38 38 40 42 43 43 40 38 36 33 30 26 20 16 13 10 8 7 6 6 6 5 5 5 6 6 6 6 6 6 6 6 6 6 6
54 66 68 64 63 74 90 99 102 101 99 100 101 100 91 73 52 35 26 24 23 23 23 23 24 24 25 26 28 28 29 29 29 30 29 27 26 26 26 26 27 32 40 43 42 40 40 40 40 41 40 40 40 40 40 42 43 42 42 41 38 36 33 29 26 20 14 11 9 8 6 5 6 6 5 5 5 6 6 6 6 6 6 6 6 6 5 5
56 58 60 69 85 99 102 100 99 100 101 100 93 77 57 39 29 24 23 23 23 23 23 24 24 25 27 28 28 29 30 30 29 28 27 26 27 28 30 32 31 34 39 42 41 40 41 41 41 42 44 44 43 42 42 43 43 43 43 42 38 36 33 30 26 20 14 10 9 8 6 5 6 6 5 5 6 6 6 6 6 6 6 5 5 5 5 5
46 59 77 94 102 101 99 100 102 101 93 78 59 43 32 26 24 23 22 23 23 24 24 25 27 27 28 29 29 29 29 29 28 28 27 27 28 31 37 39 37 36 37 39 41 42 43 45 45 45 48 49 47 45 44 43 43 42 43 44 41 37 33 29 25 20 14 10 8 7 6 6 6 6 5 5 6 6 6 6 6 5 5 5 5 4 4 4
67 88 100 103 100 100 102 101 93 79 60 45 34 29 26 23 22 22 22 23 24 25 27 28 29 29 30 30 29 29 29 28 28 28 28 29 31 36 42 43 39 37 35 35 40 44 46 48 48 48 49 51 50 48 45 44 44 42 43 45 44 40 35 30 25 20 15 10 8 7 6 6 6 6 6 6 6 6 6 6 5 5 5 5 4 4 4 4
97 106 107 106 103 99 90 75 59 45 35 31 27 24 23 22 22 23 23 24 25 27 28 29 30 30 29 28 28 28 27 26 26 27 28 31 36 41 43 40 38 40 39 37 41 46 48 48 50 50 50 52 52 50 48 45 44 43 42 42 42 40 37 31 25 21 16 11 8 7 6 6 6 6 6 6 6 6 5 5 5 5 4 4 4 4 4 4
105 106 103 95 83 68 54 42 36 32 28 25 23 22 23 23 23 24 24 25 27 28 29 29 29 28 28 28 28 27 26 26 27 29 32 36 41 41 38 37 39 44 46 45 45 47 49 49 51 52 51 51 53 54 52 49 47 45 43 40 38 35 33 28 22 19 15 11 8 6 6 6 6 6 6 6 6 5 5 4 4 4 4 4 4 4 4 4
89 82 71 58 47 39 35 33 30 26 23 23 24 23 22 23 24 25 25 28 30 30 30 30 29 29 29 28 27 26 27 29 31 34 38 41 41 37 34 35 39 41 44 46 46 48 51 53 53 53 53 52 52 54 54 53 50 47 45 42 37 32 29 25 19 16 13 10 8 6 5 6 6 6 6 6 5 5 4 4 4 4 4 4 4 4 4 4
54 46 39 35 34 33 30 27 24 22 24 24 23 22 23 25 26 26 28 31 32 30 30 31 30 29 29 28 27 29 31 33 35 37 38 39 37 35 35 36 37 39 41 43 45 48 51 55 56 55 55 53 51 51 51 51 50 48 47 44 40 35 30 25 19 15 12 9 8 6 5 6 6 6 6 5 5 4 4 4 4 4 4 4 4 4 4 4
33 31 31 32 31 28 25 23 23 24 24 23 22 23 25 26 26 29 31 32 31 31 32 30 30 31 30 29 30 34 38 40 40 41 42 42 41 39 40 41 40 40 42 44 46 48 50 54 56 55 55 55 53 51 50 50 50 50 49 47 45 40 33 26 20 15 11 9 7 6 5 5 5 6 5 5 4 4 4 4 4 4 4 4 4 4 4 3
28 30 30 28 25 23 24 24 24 24 23 23 24 25 27 28 29 32 32 32 33 32 31 30 33 36 33 31 34 37 41 46 48 51 53 54 51 47 45 45 44 43 44 46 48 50 52 56 56 55 55 56 55 53 52 52 52 51 52 51 49 44 36 27 20 15 11 9 7 5 5 5 6 6 6 5 4 4 4 4 4 4 4 4 3 3 3 3
30 28 25 22 23 24 25 25 24 23 23 24 25 27 30 30 31 33 33 33 33 30 29 32 37 38 35 35 37 37 42 50 56 61 64 65 61 53 49 48 48 47 48 49 50 53 56 60 60 57 56 56 57 56 54 53 53 53 53 52 50 46 38 29 20 15 11 9 8 6 5 5 5 6 6 4 4 4 4 4 4 4 3 4 4 3 4 3
25 22 22 24 26 26 25 23 23 25 25 25 28 31 32 32 33 34 33 31 30 28 29 35 39 40 39 39 38 38 43 50 57 63 67 69 65 57 52 52 53 53 53 53 54 56 60 64 64 60 56 55 55 56 55 53 54 55 54 51 47 44 40 31 21 15 11 9 8 6 5 5 5 6 5 4 4 3 4 4 4 4 4 4 4 4 4 4
21 23 26 28 27 24 24 24 25 26 26 28 33 34 34 34 34 33 31 29 28 27 30 38 43 43 43 42 41 42 45 50 56 62 66 69 66 60 55 54 56 58 59 59 58 60 64 67 68 64 57 54 54 54 55 55 54 56 54 51 48 45 43 37 25 16 12 9 8 7 5 5 5 6 5 4 3 3 3 4 3 3 3 3 3 3 3 3
26 28 28 27 25 24 25 25 25 27 28 32 37 36 34 34 33 31 30 28 27 28 33 39 44 45 45 44 44 46 49 51 55 59 64 66 66 63 57 54 56 61 64 65 63 63 66 70 72 70 62 55 54 54 54 54 53 53 53 52 50 48 46 44 33 20 13 10 8 6 6 5 5 6 5 4 3 3 3 3 3 3 3 3 3 3 3 3
30 29 28 26 25 25 26 27 27 28 32 36 38 36 34 34 32 30 29 29 30 31 34 39 43 46 47 46 46 49 52 53 55 58 62 65 65 63 58 54 56 62 68 71 70 66 68 72 74 74 68 60 57 55 53 53 51 51 53 52 51 49 47 45 39 26 15 10 9 7 6 6 5 5 5 4 3 3 3 3 4 4 4 4 4 3 3 3
29 28 27 25 25 28 28 28 28 31 36 38 37 35 34 32 31 31 31 33 33 32 34 38 43 47 49 49 50 51 53 55 55 57 60 63 63 61 57 55 57 63 70 77 78 72 70 74 76 76 72 63 59 57 54 55 55 54 55 54 52 51 49 45 42 32 18 11 10 8 6 6 6 5 5 4 3 4 4 3 4 4 4 4 4 4 3 3
29 28 27 26 28 30 29 29 31 35 39 39 37 34 33 32 32 34 35 35 36 36 37 39 43 48 52 52 51 52 53 54 55 57 59 62 62 59 57 56 58 64 72 80 85 79 73 75 78 81 82 75 68 66 63 61 60 57 57 58 55 53 53 49 45 38 25 13 9 7 6 6 6 6 5 5 4 4 4 4 4 4 4 4 4 4 3 3
27 28 28 28 29 30 30 32 35 38 40 38 36 33 32 33 35 36 38 39 40 41 41 42 45 50 53 54 53 52 53 54 55 57 59 61 62 59 57 58 60 66 73 81 89 87 78 75 77 80 84 83 75 70 68 65 61 58 56 59 59 55 54 51 46 42 32 18 9 6 6 6 5 6 6 5 4 4 4 4 3 4 4 4 4 4 4 3
26 29 30 31 31 31 32 35 39 40 39 37 35 34 34 35 37 39 42 43 45 46 46 45 47 51 54 55 54 52 53 55 55 57 59 61 60 59 58 60 63 67 72 80 90 92 85 79 79 77 75 73 67 61 61 61 61 59 55 57 60 57 54 51 45 42 36 24 12 6 6 6 6 6 6 5 4 4 4 4 4 4 4 4 4 3 4 3
28 31 32 32 31 31 33 38 41 40 38 36 36 36 38 40 41 44 46 48 50 50 48 47 49 52 55 55 55 54 55 56 56 57 59 60 59 59 59 61 66 68 71 78 86 93 92 86 85 84 79 75 68 62 60 58 59 60 56 55 57 57 54 52 47 42 37 29 19 10 6 6 6 5 5 5 4 4 4 4 3 3 3 4 4 3 4 3
31 33 33 32 31 32 36 40 42 40 37 37 38 37 40 45 47 48 49 51 52 50 48 48 51 53 54 55 56 58 59 61 61 60 59 59 59 58 59 62 66 68 71 75 81 89 94 93 91 91 89 87 83 76 71 66 62 61 58 54 54 56 55 53 51 45 37 30 24 16 9 5 5 5 5 5 5 4 4 4 3 3 3 4 4 3 3 3
33 34 33 32 32 34 39 42 42 40 38 38 40 42 45 49 51 51 52 53 52 49 49 51 52 54 55 56 58 61 63 65 67 66 64 62 59 58 59 62 65 67 68 71 76 82 90 93 94 96 93 90 90 87 82 77 70 63 60 56 53 55 56 54 52 48 40 33 26 19 12 6 5 6 5 5 5 4 3 4 3 3 3 3 4 4 3 3
35 35 32 32 34 37 41 44 43 41 40 41 44 47 50 53 54 53 53 53 51 50 51 53 55 56 57 58 61 64 68 71 72 71 69 67 63 60 60 61 62 63 62 64 68 73 81 87 92 98 97 91 89 91 86 81 76 68 61 58 56 55 56 53 51 50 46 39 31 23 17 10 6 5 5 5 5 5 4 4 4 3 3 4 4 4 4 3
36 35 33 33 36 39 43 46 45 44 44 45 47 51 54 57 58 56 52 51 51 51 53 56 57 59 59 59 63 67 72 76 78 75 71 68 66 63 61 60 58 56 54 55 58 63 71 79 86 94 99 94 88 91 89 80 76 72 64 59 58 56 55 53 49 49 49 45 37 29 22 16 9 5 6 5 5 5 5 4 4 4 4 4 4 4 4 4
38 36 34 35 37 40 45 48 48 48 48 48 51 55 58 60 60 57 51 49 51 53 54 57 60 61 61 60 63 69 73 77 79 77 72 67 65 64 62 59 55 51 49 49 52 57 63 73 80 85 93 92 85 87 90 83 76 73 66 60 57 53 52 52 49 47 48 46 41 34 25 18 12 6 5 5 5 5 5 4 4 4 4 4 4 4 4 4
39 37 35 36 38 41 46 50 51 51 51 52 55 59 63 63 59 54 50 48 50 53 57 61 62 62 62 62 65 71 75 77 78 77 73 68 65 65 63 58 51 47 49 49 50 54 59 68 76 78 82 84 78 77 84 82 75 70 63 57 54 50 49 51 50 49 48 47 44 38 29 20 14 9 6 5 5 5 5 5 4 4 4 3 4 4 4 4
39 37 35 36 38 41 47 51 52 53 53 56 59 61 65 64 58 54 51 49 50 54 60 64 64 63 64 67 70 73 76 78 77 76 75 71 69 66 62 55 48 46 49 50 48 51 55 62 70 72 72 75 73 71 74 73 67 62 57 51 50 49 47 48 49 49 49 51 50 46 37 26 18 12 7 5 5 5 4 4 4 4 4 3 3 4 4 4
Wind_Speed
50 50 49 49 50 50 49 45 40 34 30 27 26 26 26 27 29 30 30 30 31 30 30 30 30 30 31 32 33 34 35 37 39 41 43 45 47 48 50 52 54 56 58 60 61 63 65 67 69 71 73 75 77 79 81 82 84 85 86 88 88 89 88 87 86 85 84 84 84 84 84 85 85 86 86 87 88 88 89 89 90 90 91 91 91 91 92 92
50 50 50 51 52 51 48 43 38 31 27 26 26 25 25 26 27 28 28 28 28 28 28 29 29 30 31 32 33 34 36 38 40 42 44 46 48 50 52 54 56 58 60 62 64 66 68 70 72 74 76 78 79 81 82 84 85 86 87 86 85 84 84 83 83 83 83 83 83 83 83 83 83 83 83 84 85 85 85 85 86 87 88 88 88 88 89 89
51 50 51 52 51 49 46 42 36 30 28 28 27 26 26 26 27 27 27 27 27 28 28 29 29 30 31 32 34 36 38 40 42 44 46 48 50 53 55 57 58 60 62 64 67 69 70 72 74 76 78 80 81 83 84 85 85 84 83 81 81 81 81 82 81 81 81 80 80 80 80 80 80 80 81 82 83 83 83 83 84 85 86 87 87 87 88 88
50 50 51 51 49 47 45 40 35 31 29 29 28 28 27 27 28 28 28 28 28 29 29 29 30 31 33 34 36 38 40 41 44 46 48 50 53 55 57 59 61 63 65 67 69 71 73 75 77 79 80 82 83 83 82 81 80 80 79 79 79 79 78 78 78 78 78 78 78 78 79 79 80 81 82 83 84 84 84 85 86 87 88 88 89 90 90 90
48 49 49 49 47 46 44 39 34 31 30 30 30 30 29 29 30 30 29 29 29 30 30 30 31 33 35 37 38 40 42 44 46 48 51 53 55 58 59 61 63 65 67 69 71 73 75 77 79 81 82 82 81 79 78 78 78 77 77 76 76 76 76 77 77 77 78 78 79 79 80 80 81 82 84 85 85 85 85 86 87 88 89 90 91 92 93 93
46 47 47 47 46 44 43 39 35 32 31 32 31 31 32 32 32 32 31 31 30 30 31 32 33 34 36 38 40 42 45 47 49 51 53 56 58 60 62 63 65 67 69 71 73 75 77 79 80 80 79 78 77 76 76 75 75 74 74 74 75 75 76 77 77 77 78 79 79 80 80 81 82 83 84 85 86 85 85 86 87 88 89 91 93 94 94 95
45 46 46 45 44 43 41 39 36 33 32 32 32 32 33 33 33 33 32 32 32 32 32 33 35 37 38 40 43 45 47 49 51 54 56 58 61 63 64 65 67 69 71 73 76 77 78 78 76 75 74 73 73 72 72 72 73 73 74 74 75 76 77 78 78 78 79 80 80 81 81 82 83 84 86 87 87 87 87 88 88 88 90 92 93 94 95 95
44 44 44 43 42 40 39 38 36 34 33 32 33 34 34 34 34 33 33 33 33 34 35 37 38 40 41 43 45 47 49 51 54 56 58 61 63 64 65 67 69 71 73 75 77 76 75 73 72 71 70 70 69 70 71 71 72 73 74 75 76 77 78 79 80 80 80 81 82 82 83 84 85 87 88 89 90 89 89 90 90 91 92 94 95 96 96 96
43 42 42 40 39 38 38 37 36 35 34 34 35 35 35 35 34 34 34 35 36 37 38 40 41 42 43 44 46 49 51 53 56 58 60 62 64 65 67 69 71 73 75 75 73 71 70 69 68 67 67 68 69 70 70 71 73 74 75 76 77 78 79 81 81 81 82 83 83 84 85 86 87 89 91 92 92 92 92 92 93 94 95 96 97 98 98 98
42 41 40 39 38 37 37 37 36 35 35 36 36 36 35 35 35 35 35 36 37 39 40 41 42 43 44 46 48 50 53 55 58 60 61 63 65 67 69 71 73 73 72 70 68 66 65 65 65 66 67 68 69 70 71 72 73 74 75 75 76 77 78 79 81 82 82 83 84 85 86 88 90 91 92 93 94 94 95 95 96 97 98 98 99 99 100 100
41 39 38 38 37 37 37 37 36 36 36 37 37 36 35 35 35 35 36 37 38 39 40 41 42 44 45 47 50 52 55 57 58 60 62 64 66 68 70 71 70 69 66 64 63 62 62 63 64 65 66 67 68 68 68 68 69 70 71 72 73 74 75 77 78 79 81 82 83 83 84 87 90 91 92 93 94 95 96 97 98 99 100 100 100 101 101 102
38 38 38 38 37 37 37 37 36 35 36 37 36 35 35 35 35 36 37 37 38 39 40 41 43 45 47 49 51 54 56 57 59 61 63 65 67 68 69 67 65 62 61 60 60 60 61 62 63 63 64 64 64 63 63 64 65 66 68 69 71 72 74 75 76 77 78 79 80 80 80 84 88 89 90 91 92 94 95 96 97 98 99 100 100 101 102 103
36 37 37 37 38 37 37 36 35 35 36 36 35 35 34 35 35 35 36 37 38 39 40 42 44 46 48 51 53 54 56 57 59 61 63 65 66 65 63 60 59 58 58 58 59 60 60 60 60 60 60 59 60 60 61 62 64 65 67 69 70 72 75 75 75 76 77 77 78 78 77 79 84 86 86 89 91 92 94 95 96 97 98 99 100 101 102 103
35 35 35 36 37 37 36 35 35 35 35 35 34 34 34 34 34 35 36 37 38 40 41 43 45 47 49 51 53 54 56 57 59 62 63 63 61 58 56 55 55 56 57 58 58 57 57 56 56 56 57 57 59 60 61 63 64 65 67 69 70 71 73 76 76 75 76 76 76 77 75 75 80 81 83 86 88 90 92 94 95 96 97 98 99 100 102 103
32 33 32 33 35 35 35 35 34 35 35 35 34 34 34 34 35 36 37 38 39 40 42 44 46 47 49 50 52 53 56 58 60 60 59 56 53 52 52 52 54 55 55 54 53 52 51 52 53 54 56 57 58 60 61 63 65 66 67 68 70 70 71 75 77 76 75 76 77 78 76 75 77 79 82 85 86 88 90 91 93 93 95 96 98 99 101 102
29 31 30 30 31 32 34 34 35 35 34 34 34 34 34 34 35 36 37 38 39 41 42 44 45 47 48 49 52 54 56 57 57 55 52 49 48 49 50 51 52 51 50 49 49 49 50 51 52 54 56 58 60 61 62 64 66 68 68 69 71 71 71 73 76 76 74 75 76 78 78 76 76 78 81 84 85 86 87 89 90 91 93 94 95 97 98 100
27 28 28 28 27 28 30 32 33 34 33 33 33 32 33 34 35 36 36 38 39 40 42 43 44 45 47 49 52 53 54 52 50 48 46 46 46 47 47 47 47 46 46 46 47 49 50 51 53 55 58 61 63 65 66 66 68 69 70 71 71 72 73 73 74 75 74 74 75 77 77 76 76 78 80 83 84 85 86 86 87 88 89 90 92 93 95 96
25 26 26 25 24 24 26 28 29 30 30 30 30 31 31 32 33 34 35 37 37 39 40 41 43 45 47 49 50 50 49 46 44 43 43 44 44 44 43 42 42 42 44 45 47 49 51 53 56 59 62 64 67 69 70 70 70 70 71 71 72 72 74 75 75 74 73 72 73 74 74 74 75 77 79 82 84 85 85 85 85 85 86 87 88 89 91 92
25 25 24 23 21 22 23 24 25 25 26 27 28 29 30 30 31 32 33 34 35 37 38 40 42 45 47 48 47 45 43 41 41 41 41 41 40 39 39 39 40 41 44 47 50 52 55 58 61 63 65 67 70 71 73 73 73 74 74 74 75 73 74 76 77 75 74 72 73 74 73 72 74 76 79 81 83 85 85 86 86 86 86 86 86 87 88 89
24 23 23 21 20 20 21 21 21 22 23 25 26 27 27 28 29 29 30 32 34 36 38 41 43 44 44 43 41 39 38 38 39 38 37 36 36 35 36 37 39 43 47 51 55 57 59 61 63 65 67 69 71 73 74 76 76 76 77 77 78 76 75 77 78 77 77 75 75 75 74 73 74 76 77 79 80 82 83 84 85 85 85 85 85 85 84 85
23 22 21 19 18 18 19 19 19 20 21 22 23 23 24 25 26 27 29 31 33 36 38 40 41 40 38 36 36 36 36 36 35 34 33 33 33 33 35 38 41 46 51 54 57 60 62 63 65 67 70 71 73 75 76 78 78 78 79 80 80 79 77 77 79 79 78 77 76 75 73 72 74 75 76 76 77 79 80 81 82 83 83 83 82 82 81 81
22 20 19 17 16 16 16 17 17 18 19 19 20 20 21 23 25 26 29 31 34 36 37 37 35 34 32 32 32 33 32 31 30 30 30 30 31 33 37 40 44 49 54 57 59 62 64 66 68 70 72 73 74 76 77 79 81 81 81 82 82 81 78 76 77 78 78 78 76 74 72 71 73 74 74 75 75 76 76 77 78 78 79 79 79 79 79 79
20 19 17 16 15 15 16 16 16 16 17 17 18 19 20 22 24 26 29 32 33 34 33 31 29 28 28 29 30 29 28 28 28 29 30 31 34 37 40 44 48 53 57 59 61 64 66 67 70 71 73 74 75 77 78 80 82 84 84 84 83 83 82 78 75 76 78 79 78 75 71 69 72 74 74 74 73 73 73 73 74 75 75 76 76 77 77 78
19 18 16 15 15 15 15 15 14 14 15 16 17 18 20 22 25 27 29 30 30 28 26 25 25 26 27 27 27 27 26 27 28 30 33 36 40 43 45 49 52 56 59 61 63 65 67 70 71 73 74 75 76 78 79 80 82 84 86 86 85 85 85 83 80 78 78 80 81 77 71 68 71 73 73 72 70 70 70 71 72 73 73 74 75 76 76 77
19 17 16 15 15 14 13 13 12 13 14 15 16 18 21 23 26 27 27 25 24 23 23 23 24 24 25 25 24 24 25 27 30 33 37 40 44 48 50 52 55 58 61 63 65 67 69 71 73 74 75 77 78 79 80 81 83 84 86 87 87 87 87 86 85 82 79 80 81 79 73 68 69 72 71 70 69 69 70 71 71 72 73 74 74 75 76 77
19 17 16 15 13 13 12 11 11 12 13 15 17 19 22 23 24 23 22 20 19 20 21 22 22 22 23 22 22 24 27 29 33 37 41 44 48 51 53 55 57 60 63 64 67 69 70 72 73 75 77 78 80 81 83 84 85 86 88 89 90 90 89 88 86 85 82 81 82 82 78 72 70 72 71 69 69 70 71 71 72 73 73 74 74 75 76 76
19 16 15 13 12 11 10 10 11 12 13 15 18 19 20 20 19 18 16 16 17 19 20 20 20 20 20 21 22 25 29 32 35 39 43 47 51 53 56 58 60 63 65 66 68 70 70 72 74 76 79 80 82 84 85 87 88 90 91 92 93 92 91 89 88 86 85 84 83 82 79 73 71 72 70 68 69 69 70 70 71 72 72 73 74 74 75 76
18 16 14 12 11 10 9 10 11 12 14 16 17 17 17 15 14 14 14 16 17 18 18 18 18 18 19 22 24 27 31 35 39 43 46 50 53 56 59 61 63 66 67 67 68 69 71 74 77 78 80 83 85 87 88 90 92 93 94 95 95 94 93 91 89 86 85 85 83 79 75 69 67 70 68 66 68 69 69 69 70 71 71 72 72 73 74 75
17 15 14 12 10 9 9 10 11 12 13 14 14 13 12 11 12 13 15 16 16 16 16 16 17 19 21 24 27 31 36 40 43 46 49 52 55 58 60 63 66 68 69 69 69 72 75 77 79 81 83 85 88 91 93 94 96 97 97 97 97 96 95 92 90 87 85 85 82 77 73 66 63 67 68 65 66 67 67 67 68 68 69 70 71 72 73 74
16 15 13 11 9 9 9 10 10 10 10 10 9 8 8 10 12 13 14 14 13 13 13 14 17 20 23 26 30 34 39 42 45 48 51 54 58 60 63 66 69 70 72 72 73 76 79 81 83 85 86 88 91 94 96 98 100 101 101 100 99 97 96 93 90 88 87 86 83 79 75 70 65 64 65 65 64 65 66 66 66 67 67 68 69 71 72 73
14 12 11 9 8 8 7 7 7 7 6 5 5 7 8 10 12 12 12 11 11 11 13 16 19 22 25 30 35 39 43 46 49 52 54 57 59 62 65 68 70 72 75 77 79 80 83 85 86 88 89 90 92 95 98 101 102 103 105 105 103 101 98 95 90 87 87 87 85 79 75 72 70 66 65 65 65 66 66 66 66 67 67 68 69 70 71 72
12 10 9 7 6 5 5 5 4 3 2 4 6 8 9 10 10 10 10 9 10 12 15 19 22 25 30 35 40 44 47 50 52 53 55 56 57 59 63 68 71 74 77 81 84 86 88 90 90 91 92 93 94 96 98 101 103 106 108 110 111 109 107 103 96 90 89 90 87 82 77 74 73 71 68 67 66 66 66 66 65 65 65 66 68 68 69 70
9 8 6 5 4 4 3 2 1 3 5 6 7 8 9 10 9 8 8 10 12 15 19 22 24 29 34 39 43 47 50 52 53 53 54 56 57 60 64 68 72 76 80 83 87 90 92 94 95 95 96 97 98 99 100 103 107 110 113 115 117 118 116 113 107 99 94 94 92 86 81 77 74 73 70 68 66 65 65 65 65 65 65 66 67 67 67 67
7 6 4 4 3 2 3 4 5 6 6 6 7 9 9 8 7 7 10 13 16 19 21 24 27 32 37 41 45 48 51 53 54 55 56 58 60 63 65 68 72 75 79 83 87 92 96 99 100 100 99 100 101 103 105 108 110 113 116 118 120 121 120 118 114 107 100 99 96 88 83 79 75 73 72 70 69 68 66 66 66 66 66 65 64 63 63 62
6 5 4 4 4 6 7 7 7 7 6 6 8 9 8 6 7 10 13 16 18 20 23 26 30 35 38 41 44 46 49 51 53 55 57 59 62 63 66 68 71 75 78 82 86 92 99 103 105 104 103 103 104 106 108 110 113 114 116 118 119 121 121 119 115 109 103 100 98 91 84 81 78 75 74 72 69 67 66 65 66 66 65 64 62 62 61 60
5 5 6 8 9 9 9 8 7 6 6 7 9 10 8 7 10 13 16 18 19 20 23 27 31 35 38 41 43 44 47 50 52 55 57 60 62 64 67 69 72 75 78 82 86 90 97 104 107 107 105 104 106 109 112 114 116 117 118 118 119 121 123 122 117 110 103 99 99 97 90 84 81 78 76 73 69 66 65 65 66 67 66 66 64 63 63 61
7 9 11 11 11 10 8 7 7 6 7 10 11 10 10 11 13 16 17 18 19 21 24 28 32 35 38 40 42 43 46 49 52 55 58 60 62 64 67 69 72 75 79 83 87 89 95 102 107 107 106 106 107 111 115 117 119 120 120 121 121 121 123 124 122 116 109 104 101 100 96 90 85 82 80 76 72 68 66 66 68 68 68 67 65 64 63 62
12 13 13 12 11 10 9 8 8 8 9 12 14 12 12 13 15 16 17 18 19 22 25 30 34 36 38 40 42 44 46 49 52 55 58 60 62 64 67 70 73 75 79 83 87 89 93 99 105 108 108 107 108 111 114 117 119 120 122 122 123 124 124 125 125 123 118 112 104 100 97 92 88 85 82 79 75 71 68 68 69 69 68 67 65 63 62 60
15 14 13 12 11 10 10 8 9 10 11 15 16 13 13 15 15 16 17 18 21 24 27 31 34 36 38 40 42 43 46 48 51 54 58 60 63 65 67 70 73 76 78 82 86 89 92 97 103 107 109 109 109 111 113 116 118 120 122 123 125 126 126 125 127 126 122 118 111 103 97 94 90 87 84 81 78 75 73 72 72 71 70 68 66 63 60 57
16 14 13 12 11 11 11 10 11 13 15 17 16 14 14 15 15 16 17 20 23 25 28 31 34 36 38 40 41 43 46 48 52 55 58 61 63 65 68 70 73 76 78 81 85 89 91 95 100 105 108 110 111 113 115 118 120 122 124 126 127 127 127 125 125 125 122 120 118 112 103 97 92 89 88 86 83 80 77 76 76 74 72 70 67 63 59 56
15 13 12 11 12 11 11 11 12 15 18 18 15 14 14 15 15 16 18 21 24 27 29 31 34 36 38 40 42 44 46 49 52 55 58 61 63 66 68 71 73 76 78 81 84 88 90 93 97 102 106 110 112 114 117 119 121 123 126 128 130 130 131 129 127 126 123 120 118 115 109 102 98 94 93 91 88 84 81 79 77 75 72 70 68 64 59 55
15 13 11 11 12 12 12 13 15 18 19 17 15 14 14 14 16 18 20 22 25 27 30 32 34 36 39 41 43 45 47 50 52 55 58 61 63 66 68 71 74 76 78 80 83 86 89 91 94 99 103 107 111 113 116 119 121 124 126 129 131 133 134 135 133 130 126 121 115 112 109 106 104 101 98 95 92 88 84 80 78 76 74 72 69 64 60 56
16 14 12 11 12 13 13 15 18 19 18 16 15 14 14 16 18 20 22 24 26 28 30 32 34 37 39 41 43 45 48 50 53 55 58 61 63 66 69 71 74 76 79 81 83 86 89 91 92 95 99 103 107 111 116 120 123 125 127 129 132 134 135 135 134 132 129 124 117 112 111 108 106 103 100 97 93 89 85 82 80 78 76 74 71 66 61 57
17 15 13 13 12 12 15 18 20 19 17 15 15 15 16 18 20 22 24 25 27 28 30 32 34 37 39 42 44 46 48 50 52 55 58 60 63 66 69 72 74 76 79 81 84 87 91 94 95 98 100 103 107 112 117 122 126 129 130 130 131 133 134 133 132 130 129 127 123 118 114 111 107 103 100 97 93 89 86 85 83 81 78 75 72 68 62 58
17 15 13 12 12 12 16 20 20 17 16 15 14 15 17 19 21 23 24 25 27 28 30 32 35 38 40 42 44 46 48 50 53 55 57 60 63 66 69 72 74 77 79 82 84 87 92 96 99 103 106 109 113 117 120 124 128 130 132 131 131 132 133 133 133 131 130 130 129 125 120 114 109 104 100 97 94 90 86 84 84 83 81 78 75 70 64 59
17 14 12 12 11 14 18 20 18 16 15 14 14 15 17 20 21 23 24 25 26 28 30 32 35 38 40 43 45 47 49 51 53 55 58 60 63 65 68 71 74 77 79 82 84 87 91 96 100 104 108 111 114 118 121 124 127 130 132 132 131 132 133 133 134 134 133 131 131 130 125 118 113 108 103 99 96 92 88 85 84 84 82 80 77 73 66 61
15 14 12 11 12 16 19 19 17 15 14 14 14 16 18 20 21 22 24 25 26 28 30 32 35 38 41 43 45 48 50 52 54 56 59 61 63 65 68 71 74 76 79 81 84 86 90 94 98 102 105 109 112 115 119 122 125 128 131 133 132 131 131 132 134 136 136 135 133 131 128 124 118 113 108 103 99 96 92 89 87 87 85 82 79 76 70 65
15 13 12 12 14 17 19 18 16 14 13 14 15 16 18 19 20 22 23 25 27 28 30 33 35 38 41 43 46 49 51 53 55 57 60 62 63 66 68 70 72 75 78 80 83 85 88 92 96 99 102 107 110 113 116 119 123 126 130 132 133 132 131 132 134 136 138 138 137 135 133 129 123 116 111 108 105 102 99 94 91 90 88 85 81 78 74 68
14 13 11 12 15 18 18 16 14 14 13 13 14 16 17 18 19 21 23 25 27 28 31 33 36 38 41 43 46 48 51 53 55 57 60 62 64 66 68 69 71 74 76 79 82 84 86 90 93 97 100 104 108 111 114 117 120 124 127 130 132 133 132 133 135 137 138 140 140 138 136 133 127 121 116 112 108 105 102 97 93 90 89 87 84 80 76 71
14 13 11 12 15 18 17 14 13 12 12 12 14 15 16 17 18 20 22 25 26 29 31 33 36 38 40 43 45 48 50 53 55 58 59 62 64 66 68 70 72 74 76 79 81 83 85 88 91 95 98 102 106 109 112 116 119 121 124 128 131 133 133 134 136 137 139 140 140 139 137 134 131 127 122 117 111 106 102 97 93 90 89 87 85 82 79 75
14 13 11 12 16 17 15 13 12 11 11 11 12 13 14 16 18 20 22 24 26 29 31 34 36 38 40 43 45 48 50 53 55 58 60 62 64 66 68 70 72 74 77 79 81 82 84 86 89 93 96 100 104 108 111 114 117 119 122 126 130 133 135 136 137 138 139 140 140 140 138 137 135 131 125 119 113 108 103 98 94 90 88 88 86 83 81 78
13 12 11 12 15 16 14 12 11 10 10 10 11 12 13 15 17 19 22 24 26 29 32 34 36 39 41 43 45 48 51 53 56 58 61 63 65 67 69 71 72 74 77 79 81 83 85 87 89 92 95 98 102 108 111 113 116 119 123 127 131 134 136 136 136 136 137 140 141 141 140 140 138 135 129 123 117 111 106 101 97 92 90 89 87 85 82 80
Wind_Direction
204 208 212 215 216 219 222 224 224 222 223 230 237 241 241 242 245 248 252 255 259 262 265 268 271 274 278 280 283 286 287 288 289 288 288 288 289 289 289 289 289 289 288 288 288 288 288 288 288 288 288 289 289 290 291 291 292 292 292 292 292 291 291 290 290 289 288 287 287 286 285 284 284 283 282 281 281 280 279 278 278 277 276 275 274 273 272 272
203 207 210 214 216 219 222 224 224 222 225 233 238 239 240 242 246 249 254 257 260 263 267 271 274 278 281 285 287 288 288 288 288 288 288 289 290 291 291 291 291 292 291 291 291 291 291 291 291 291 292 292 292 293 293 293 294 294 294 293 293 292 291 291 290 289 289 288 287 287 286 285 285 284 283 282 281 281 280 280 279 278 278 277 276 275 274 273
203 205 210 214 216 218 222 224 225 225 228 234 236 238 241 244 247 251 256 259 262 265 269 274 278 281 284 286 287 287 287 288 288 289 290 291 292 293 293 294 294 294 294 294 294 294 294 294 294 294 295 295 295 295 295 295 295 295 294 294 293 293 292 292 291 291 290 289 289 288 287 287 286 285 284 283 282 282 281 281 280 280 279 278 277 276 275 274
203 206 210 214 217 219 222 224 226 228 231 235 238 242 245 248 250 253 257 261 264 268 272 277 281 284 285 285 285 285 286 288 289 290 292 294 295 296 296 296 296 296 296 296 296 296 296 296 297 297 297 297 298 297 297 297 297 297 296 296 296 295 295 294 293 293 292 291 291 290 289 288 287 286 285 284 283 283 282 281 281 280 280 279 278 277 276 275
204 206 210 214 218 220 224 226 229 233 234 238 241 244 247 249 251 254 259 264 268 271 274 279 283 284 283 283 284 285 287 288 290 292 294 296 298 298 298 298 298 298 298 298 298 298 298 298 299 300 300 300 300 300 300 300 299 299 299 299 298 298 297 296 296 295 294 294 293 292 291 290 289 287 286 285 284 283 283 282 281 280 280 279 279 278 277 276
205 206 210 212 217 220 223 227 231 235 237 239 243 246 249 251 253 257 262 266 270 273 276 280 283 282 282 283 285 286 288 291 293 295 296 298 299 300 299 299 299 298 298 298 299 300 300 301 302 302 302 303 303 303 303 303 302 302 302 302 301 300 299 299 298 297 297 296 295 294 292 291 290 289 288 287 286 285 285 284 282 282 281 280 279 278 277 277
206 207 210 212 215 218 221 224 228 232 236 240 244 246 249 252 256 260 264 268 272 275 277 280 281 282 283 285 287 289 291 292 294 296 297 298 299 300 299 299 299 299 300 301 302 303 303 304 304 304 305 305 305 305 305 305 305 305 304 304 304 303 302 301 300 299 298 297 296 295 294 293 292 290 289 288 287 287 286 285 284 283 282 280 279 279 278 278
207 207 210 212 215 218 220 223 225 229 233 237 241 245 249 253 257 261 265 269 272 275 278 280 281 283 285 287 289 290 292 293 295 297 298 299 300 300 300 300 300 301 302 304 304 305 305 306 306 307 307 307 307 308 308 308 308 308 307 307 306 304 303 302 301 300 298 296 295 294 293 292 291 290 289 288 287 286 285 284 283 282 280 279 279 278 278 278
207 207 209 212 214 218 221 224 226 228 232 235 239 243 248 253 257 262 266 270 272 274 277 280 282 285 287 289 290 291 292 294 296 298 299 300 300 300 301 302 303 304 305 306 306 307 308 309 309 309 310 310 311 311 312 311 311 310 308 307 305 303 301 300 299 298 296 294 293 292 291 290 289 288 287 286 285 285 284 282 281 280 279 278 278 277 277 276
205 206 208 211 214 218 221 225 227 230 233 237 241 245 249 254 258 262 266 270 273 275 279 282 284 286 288 289 290 292 294 296 297 299 299 300 300 301 303 304 305 306 307 308 309 310 311 312 312 313 314 314 314 314 314 312 310 308 307 305 303 301 300 298 297 296 294 292 291 290 289 287 286 285 284 283 283 283 282 280 279 278 277 277 276 276 275 274
203 205 206 209 213 218 221 224 228 231 235 239 243 248 252 256 260 263 267 271 274 277 280 283 285 287 288 289 291 293 295 297 298 299 300 301 302 304 305 306 307 308 310 311 312 313 314 315 316 316 316 316 315 313 312 310 309 308 307 306 304 302 300 299 297 295 293 292 290 289 288 287 286 284 283 283 282 282 280 280 279 278 277 277 276 275 274 273
201 203 205 208 212 216 220 224 227 231 236 241 245 249 254 258 262 266 269 273 276 278 280 283 285 287 288 290 293 295 296 297 298 300 301 303 304 306 307 309 310 312 313 314 315 317 318 318 318 317 316 314 313 313 313 313 313 312 311 309 307 305 303 301 300 298 296 295 293 292 291 289 287 286 286 285 283 282 280 279 279 278 277 277 276 275 274 273
200 203 205 206 211 215 220 223 227 232 237 242 247 251 256 260 264 267 271 273 276 278 280 283 285 287 290 293 294 295 297 298 299 301 303 304 306 308 310 312 313 314 316 318 320 320 320 319 317 316 316 317 318 319 320 319 318 317 315 313 311 309 307 305 303 301 299 298 296 294 292 290 288 288 286 285 283 282 280 279 278 277 277 276 276 275 274 274
199 203 206 207 210 215 220 224 227 232 237 242 247 251 255 259 263 267 270 272 275 278 281 283 286 289 292 293 295 296 298 300 301 303 305 308 311 313 314 315 317 319 321 322 321 320 319 318 319 321 323 325 326 325 325 324 323 321 319 316 314 313 310 308 306 304 303 301 299 297 294 291 289 288 286 284 283 282 281 280 279 278 277 276 276 275 274 274
198 203 208 209 210 214 219 223 228 233 237 242 246 250 254 258 262 265 268 271 275 279 282 286 289 291 292 294 296 298 300 302 304 307 310 312 314 315 317 319 321 323 322 321 320 320 321 323 327 329 330 330 330 330 329 328 326 324 322 320 318 317 314 311 309 308 307 306 303 300 298 295 293 291 288 286 284 283 282 281 280 280 279 278 277 276 276 275
195 201 208 212 212 214 218 223 228 233 238 242 247 251 255 259 262 265 269 273 277 281 285 288 290 292 294 297 298 300 303 306 309 311 313 314 316 319 322 324 324 322 322 322 323 326 329 332 334 334 335 335 334 334 333 332 330 329 327 325 322 320 317 314 312 311 311 309 306 303 301 299 297 294 291 289 287 285 284 283 282 281 280 280 279 278 278 277
192 197 205 211 213 215 218 223 228 233 238 243 248 252 256 260 264 267 272 277 281 284 287 289 291 294 297 299 302 305 307 309 311 312 315 319 323 325 325 324 323 323 325 328 331 334 336 337 338 338 339 339 338 337 336 336 335 332 330 327 325 323 320 317 315 315 314 312 308 305 304 303 300 296 293 291 289 288 286 285 284 283 282 281 280 279 278 277
187 191 199 206 210 214 219 223 228 233 238 244 248 253 257 261 267 272 277 281 283 286 289 292 295 298 300 303 306 308 309 310 313 318 322 326 327 326 324 323 324 328 332 336 338 340 340 341 343 343 343 342 341 340 339 338 337 334 331 329 328 326 322 320 319 318 316 313 310 307 306 305 302 299 297 294 293 292 291 290 288 286 285 284 282 281 280 279
185 186 193 200 207 214 220 226 230 234 239 245 250 255 261 266 272 276 279 282 285 289 293 296 298 301 304 306 307 310 313 317 322 325 328 328 327 325 326 328 332 337 340 342 344 345 346 347 347 346 346 345 343 341 339 339 338 336 334 332 331 330 326 323 322 321 319 316 313 311 310 308 305 302 299 298 297 296 295 294 292 291 289 287 285 284 283 283
186 185 190 196 205 215 223 230 235 239 244 249 255 260 266 270 274 277 281 286 290 294 297 300 302 305 306 308 311 316 321 326 329 329 329 327 327 329 332 335 339 343 346 348 349 350 350 350 349 348 348 347 345 343 340 340 340 338 336 335 334 333 330 327 326 325 322 320 317 315 314 311 307 304 301 300 298 297 296 295 294 293 292 291 289 288 287 286
188 188 190 196 205 214 223 230 236 242 247 253 259 264 268 272 277 282 288 293 295 298 301 304 306 308 311 315 320 325 329 331 330 328 327 328 331 335 338 342 346 350 352 353 353 352 352 351 351 350 349 348 346 344 342 341 340 340 338 338 336 335 334 332 329 328 325 322 320 317 316 314 310 306 304 302 300 298 297 296 296 295 294 293 292 290 289 287
188 189 192 197 204 213 223 230 237 243 249 255 261 266 273 279 285 290 294 296 299 301 304 307 310 313 318 323 327 330 329 327 324 325 329 332 336 341 346 350 353 355 356 356 355 354 353 353 352 351 350 348 347 346 344 342 341 341 341 340 338 337 336 335 332 330 327 324 321 319 318 317 312 309 306 304 302 301 300 299 298 297 295 294 293 291 290 288
188 191 195 200 207 216 225 233 240 247 253 259 266 274 282 288 292 294 296 299 302 305 309 312 317 322 326 329 330 329 325 325 330 336 340 343 347 351 355 357 358 359 359 358 356 355 354 354 353 352 350 349 348 348 346 345 343 343 342 342 341 339 338 337 336 334 330 327 323 321 322 320 315 312 309 307 306 305 304 301 299 297 296 294 293 292 291 289
188 193 198 203 212 222 230 237 243 250 259 267 276 284 289 292 294 297 301 304 307 311 316 320 325 328 331 332 331 329 330 336 343 348 352 355 358 360 1 1 1 1 1 359 358 356 355 354 353 352 351 350 350 350 349 347 346 345 344 343 343 341 340 340 339 338 334 329 325 324 325 324 319 314 312 310 309 308 305 302 300 299 298 296 295 294 293 292
188 193 200 207 217 226 232 238 247 258 269 278 284 289 293 295 299 303 307 311 315 320 325 329 332 334 333 333 332 335 343 350 354 358 1 3 4 4 4 4 3 2 2 1 359 358 356 355 354 353 353 352 352 351 351 350 349 347 346 345 345 344 343 343 341 340 337 331 327 326 328 327 323 317 314 314 313 310 307 306 304 303 302 301 299 298 296 294
188 195 203 211 219 224 232 243 255 266 277 284 289 293 296 300 305 310 315 320 324 330 334 335 336 335 334 336 341 349 356 0 4 6 7 7 7 7 6 5 4 4 4 2 360 359 358 356 355 355 354 354 354 353 353 352 351 350 349 348 348 347 346 345 344 342 338 333 331 331 331 332 328 321 318 318 316 313 311 309 308 306 305 304 302 300 298 296
191 198 204 208 213 222 234 249 262 273 283 289 292 296 300 306 312 318 324 330 333 337 338 337 337 336 339 347 355 1 5 7 8 9 9 9 9 8 8 7 5 4 4 4 2 0 359 358 358 358 357 356 356 355 355 355 354 353 352 351 350 350 348 347 346 344 340 335 334 334 334 335 331 322 321 321 318 315 313 312 310 309 307 305 303 301 299 297
191 194 196 200 209 222 238 254 268 280 286 290 295 301 308 316 323 330 336 339 341 341 340 339 341 345 353 2 7 9 11 11 11 11 11 11 11 11 10 8 6 5 4 6 5 2 2 2 1 0 360 358 358 357 357 357 356 355 355 353 353 352 350 350 348 347 342 337 336 336 336 337 331 324 324 324 320 317 316 314 312 310 308 306 304 302 300 299
181 184 189 197 208 223 243 260 273 281 287 294 302 311 321 331 338 342 346 348 346 343 343 348 356 3 10 14 15 15 15 15 15 15 14 14 13 13 13 11 9 6 4 6 7 5 4 4 3 2 2 1 359 359 358 358 358 357 356 355 355 354 353 352 351 349 345 339 338 340 338 338 333 328 328 326 323 321 318 316 314 311 309 307 305 303 301 300
175 182 190 201 215 233 250 264 274 282 293 304 317 332 343 347 350 352 353 350 344 345 353 3 10 14 16 17 17 17 18 18 18 18 17 17 17 16 15 14 12 10 6 6 8 8 6 5 4 3 3 3 1 0 359 359 358 358 357 356 356 356 355 354 353 352 348 342 342 344 343 340 336 333 332 329 327 324 321 319 316 314 312 310 308 306 304 303
178 186 196 209 226 242 254 266 277 291 306 328 354 3 359 359 1 358 351 347 348 359 10 15 16 17 20 22 23 23 23 22 22 22 21 21 20 19 18 18 17 15 12 9 10 10 8 6 5 4 3 3 3 2 1 360 359 358 357 357 357 357 356 356 355 354 350 345 345 346 346 343 340 338 337 334 332 329 326 323 320 318 315 313 310 309 307 306
182 190 200 213 226 240 256 268 285 310 4 31 24 12 9 11 6 355 352 2 13 19 22 23 23 25 28 30 29 29 28 27 26 25 24 23 22 20 19 19 19 18 16 13 11 12 11 8 7 5 4 4 4 4 3 1 0 359 358 357 357 357 358 357 357 356 353 348 348 349 348 347 344 343 342 339 336 333 329 325 322 319 317 315 313 311 309 308
179 185 193 206 222 239 253 255 105 86 66 46 27 22 24 17 4 3 18 30 30 28 29 30 31 34 35 34 33 32 31 30 29 27 26 24 22 20 19 18 19 18 17 15 12 12 13 11 9 7 5 4 4 4 3 3 2 1 0 359 358 358 358 358 358 358 356 352 350 352 351 349 348 345 344 341 338 335 332 328 325 323 322 319 317 314 312 310
169 176 187 198 207 189 138 115 101 82 61 44 35 38 33 19 17 35 42 39 36 36 37 37 38 39 38 37 35 34 32 30 29 28 26 24 21 20 18 18 18 18 17 15 12 11 12 12 11 9 7 6 5 4 4 4 4 2 2 1 359 358 358 359 358 358 358 354 351 353 353 351 350 347 345 345 342 339 336 333 330 327 325 322 319 317 314 312
167 172 172 163 143 127 117 105 87 70 59 54 51 49 42 37 50 54 48 44 43 43 43 43 43 41 39 37 35 33 31 30 28 26 24 23 21 20 19 18 18 18 17 16 13 11 11 12 12 10 9 7 6 5 5 5 5 4 3 3 1 359 358 359 359 359 360 356 352 353 356 354 352 351 349 347 345 342 339 336 333 330 328 326 324 321 319 316
156 148 139 131 123 117 109 95 80 70 70 67 62 61 62 64 64 57 51 49 48 47 46 45 43 41 38 36 34 32 31 29 26 24 22 21 20 19 18 18 17 17 17 16 15 12 11 12 12 11 10 9 7 6 6 6 6 5 4 4 3 1 359 359 360 360 0 360 355 354 357 356 354 353 351 349 348 345 342 340 337 335 334 333 331 328 325 323
136 130 125 121 116 109 98 90 86 85 81 74 72 77 80 73 65 59 55 53 50 47 46 43 41 39 36 34 32 31 29 26 24 22 21 20 19 18 17 17 16 16 17 17 16 14 12 11 12 12 11 10 9 8 7 7 7 6 5 5 4 3 1 359 360 0 1 2 0 357 357 357 356 354 352 351 350 349 347 345 343 340 339 337 335 333 330 327
126 125 122 118 115 107 98 94 96 91 84 83 85 87 84 73 65 61 58 54 49 46 44 41 39 37 34 32 30 28 26 24 22 20 19 18 18 18 17 16 15 15 16 17 16 15 13 12 12 13 13 12 10 9 8 8 8 8 6 5 4 4 4 2 1 1 1 2 2 0 359 358 357 355 354 352 352 352 351 349 347 344 342 340 338 336 333 330
124 124 121 119 116 109 102 101 98 93 89 91 93 90 81 73 65 61 57 52 48 45 42 39 37 35 33 30 28 26 24 21 20 19 18 18 17 17 16 15 15 14 14 15 16 16 14 12 12 13 13 13 11 10 9 8 8 8 7 7 6 5 6 5 3 2 2 1 2 2 1 1 359 357 355 354 355 355 354 352 350 348 346 343 341 339 336 332
125 124 123 122 117 109 106 103 98 96 96 97 96 89 79 72 65 59 55 50 46 43 40 37 34 32 30 28 26 24 22 20 19 18 17 17 17 16 16 15 15 14 13 14 15 16 15 13 13 13 13 13 12 10 9 8 8 9 8 7 7 6 6 6 5 4 3 3 3 2 2 3 1 358 357 357 357 357 356 355 353 351 348 346 344 342 340 336
124 125 127 125 119 113 109 104 100 100 101 99 94 86 77 70 63 57 52 47 43 40 37 34 32 30 27 25 23 21 20 18 17 17 16 17 17 16 16 15 14 14 13 12 13 15 16 14 13 13 13 14 13 12 10 9 9 9 9 8 8 7 7 7 7 6 4 5 5 3 3 3 3 1 0 359 359 358 358 357 355 352 350 349 347 345 343 341
125 125 126 124 120 116 110 105 103 103 102 97 91 82 74 66 60 55 49 44 40 37 34 32 29 27 25 23 21 19 18 18 17 16 16 16 16 16 16 15 14 14 13 12 11 12 15 15 14 13 13 13 14 13 11 10 10 10 10 10 9 8 8 7 7 6 5 5 6 5 5 5 5 3 2 1 0 359 359 358 356 354 352 352 351 349 347 344
123 121 121 119 117 116 112 107 106 105 102 96 88 80 70 64 58 52 47 42 38 34 32 29 27 25 23 21 20 18 17 17 16 16 16 16 16 16 16 15 15 14 13 12 11 10 12 14 15 14 14 13 13 13 12 12 11 11 11 11 10 9 9 8 7 6 5 5 5 7 8 7 7 5 3 2 1 360 359 358 358 357 355 354 354 353 351 348
120 119 119 117 117 117 113 109 108 106 101 93 85 76 68 61 55 50 45 39 35 32 29 27 25 24 22 20 19 18 17 17 16 16 15 15 15 15 16 15 15 14 13 12 11 9 9 11 13 14 14 14 14 14 14 13 12 11 11 12 11 10 9 8 7 7 6 5 5 8 10 9 9 7 5 3 2 1 360 359 359 358 358 357 356 356 354 351
117 118 119 120 121 118 114 112 111 107 99 91 82 73 65 58 51 46 42 36 32 29 27 25 24 23 21 20 18 18 17 16 16 16 15 15 15 15 15 15 15 14 14 13 12 10 9 9 11 11 12 13 14 14 14 14 13 12 12 12 11 10 9 8 7 7 7 7 7 8 10 10 10 9 7 5 3 2 2 1 0 360 359 359 359 358 357 354
118 123 125 126 123 119 117 115 111 105 97 88 78 69 61 53 47 42 38 33 29 27 26 24 23 22 21 20 18 17 16 16 15 15 15 15 14 15 15 16 15 15 14 14 13 12 10 9 10 10 11 11 12 13 13 13 13 12 11 12 12 10 9 9 8 7 7 9 9 8 9 10 11 10 8 7 5 4 3 3 2 2 1 1 0 360 358 357
124 128 130 128 123 121 120 116 110 103 95 85 73 63 56 49 44 38 34 30 27 26 25 24 23 21 20 19 17 16 16 15 14 14 14 14 14 14 14 15 15 15 14 14 13 13 12 10 10 10 10 11 11 12 12 12 12 11 11 11 12 11 10 9 9 8 8 9 10 10 9 10 11 11 9 8 7 6 5 4 4 3 3 3 2 1 360 359
131 134 134 129 125 124 123 117 109 100 91 80 68 59 51 45 40 35 30 28 25 25 24 23 21 20 18 16 15 15 14 14 13 13 12 12 13 13 14 14 14 14 14 13 13 13 12 11 10 10 10 11 11 11 12 12 12 11 11 11 11 12 11 10 10 9 9 9 10 10 10 10 11 11 11 9 8 8 7 6 5 5 4 4 4 3 2 1
137 139 138 130 126 128 127 118 108 98 86 75 64 54 47 41 35 31 28 26 24 24 23 22 19 18 16 15 14 13 12 12 11 11 11 11 11 11 12 13 13 13 13 13 12 12 12 12 11 10 10 10 11 11 11 11 12 12 11 11 11 12 12 11 10 10 10 10 10 11 10 10 11 12 12 11 10 9 8 7 6 6 5 5 4 4 4 2
143 144 141 131 130 134 130 118 106 96 82 71 60 50 42 35 30 27 25 24 24 23 22 20 18 16 15 14 13 12 11 11 10 10 10 10 10 10 10 11 12 12 12 12 12 12 12 12 11 11 10 10 11 11 11 11 12 12 11 11 11 12 12 12 11 10 10 10 11 11 10 10 11 12 13 12 12 11 10 8 7 6 7 7 6 5 5 4
147 147 144 134 136 139 132 116 105 94 80 67 55 44 36 29 25 24 23 23 23 22 20 18 16 15 14 13 12 11 10 10 9 9 9 9 9 9 9 10 11 11 11 11 12 12 12 12 11 11 11 10 11 11 11 11 11 11 12 12 11 12 13 13 13 11 11 11 11 11 10 10 11 12 13 13 12 11 11 10 9 8 7 8 8 7 6 6
150 152 149 141 143 144 133 117 106 93 78 64 51 39 31 24 21 20 20 21 21 20 18 17 16 15 14 12 11 10 9 9 9 9 9 9 9 9 9 9 10 11 11 12 12 12 11 11 11 11 11 10 10 11 11 11 11 12 12 13 12 12 13 14 14 13 12 12 12 12 11 11 11 11 12 13 13 12 11 11 11 10 9 9 9 9 8 8